Berlin, NH

2:17 PM EDT on July 22, 2017 (GMT -0400)
Berlin Municipal

Weather History for KBML - January, 1997

Change the Weather History Date:

Friday, January 10, 1997

  Actual Average Record
Temperature  
Mean Temperature 24 °F -  
Max Temperature 28 °F 21 °F 46 °F (2016)
Min Temperature 21 °F 1 °F -24 °F (2004)
Degree Days  
Heating Degree Days 40    
Moisture  
Dew Point 21 °F    
Average Humidity 84    
Maximum Humidity 96    
Minimum Humidity 66    
Precipitation  
Precipitation 0.00 in - - ()
Sea Level Pressure  
Sea Level Pressure 29.28 in    
Wind  
Wind Speed 5 mph (WNW)    
Max Wind Speed 17 mph    
Max Gust Speed 23 mph    
Visibility 4 miles    
Events Fog , Snow    
Averages and records for this station are not official NWS values.
T = Trace of Precipitation, MM = Missing Value Source: NWS Daily Summary

Daily Weather History Graph

Daily Weather History Graph

Search for Another Location

Airport or City:

Trip Planner

Search our weather history database for the weather conditions in past years. The results will help you decide how hot, cold, wet, or windy it might be!

Date:

Astronomy

Jan. 10, 1997 Rise Set
Actual Time 7:20 AM EST 4:24 PM EST
Civil Twilight 6:47 AM EST 4:57 PM EST
Nautical Twilight 6:11 AM EST 5:34 PM EST
Astronomical Twilight 5:35 AM EST 6:09 PM EST
Moon 8:05 AM EST (1/10) 6:40 PM EST (1/10)
Length of Visible Light 10h 10m
Length of Day
9h 04m
Waxing Crescent, 3% of the Moon is Illuminated
Jan 10
Waxing Crescent
Jan 15
First Quarter
Jan 23
Full
Jan 31
Last Quarter
Feb 7
New

Hourly Weather History & Observations

Time (EST) Temp. Windchill Dew Point Humidity Pressure Visibility Wind Dir Wind Speed Gust Speed Precip Events Conditions
12:52 AM 21.9 °F 17.2 °F 19.9 °F 92% 29.60 in 1.8 mi Variable 3.5 mph - 0.00 in Snow Light Snow
1:52 AM 23.0 °F 15.8 °F 19.9 °F 88% 29.54 in 0.8 mi ESE 5.8 mph - 0.00 in Snow Light Snow
2:52 AM 24.1 °F 19.7 °F 18.0 °F 77% 29.48 in 1.8 mi East 3.5 mph - 0.00 in Snow Light Snow
3:52 AM 24.1 °F - 21.9 °F 91% 29.42 in 0.8 mi Calm Calm - 0.00 in Snow Light Snow
4:52 AM 21.9 °F 14.5 °F 21.0 °F 96% 29.38 in 0.8 mi North 5.8 mph - 0.00 in Snow Light Snow
5:52 AM 25.0 °F 17.1 °F 21.9 °F 88% 29.34 in 1.0 mi East 6.9 mph - 0.00 in Snow Light Snow
6:52 AM 23.0 °F 17.0 °F 21.0 °F 92% 29.31 in 1.0 mi NW 4.6 mph - 0.00 in Snow Light Snow
7:52 AM 23.0 °F 18.4 °F 21.0 °F 92% 29.29 in 1.2 mi NNW 3.5 mph - 0.00 in Snow Light Snow
8:52 AM 23.0 °F 17.0 °F 21.0 °F 92% 29.25 in 0.5 mi Variable 4.6 mph - 0.00 in Fog , Snow Snow
9:52 AM 23.0 °F 17.0 °F 19.9 °F 88% 29.20 in 3.0 mi NNW 4.6 mph - 0.00 in Snow Light Snow
10:52 AM 24.1 °F 17.0 °F 21.0 °F 88% 29.15 in 4.0 mi Variable 5.8 mph - 0.00 in Snow Light Snow
11:52 AM 25.0 °F 19.3 °F 21.9 °F 88% 29.09 in 3.0 mi NNW 4.6 mph - 0.00 in Snow Light Snow
12:52 PM 26.1 °F 20.5 °F 23.0 °F 88% 29.05 in 1.2 mi WNW 4.6 mph - 0.00 in Snow Light Snow
1:52 PM 26.1 °F - 23.0 °F 88% 29.06 in 1.5 mi Calm Calm - 0.00 in Snow Light Snow
2:52 PM 26.1 °F - 24.1 °F 92% 29.08 in 0.8 mi Calm Calm - 0.00 in Snow Light Snow
3:52 PM 28.0 °F 18.6 °F 25.0 °F 88% 29.11 in 1.0 mi WNW 10.4 mph - 0.00 in Snow Light Snow
4:52 PM 27.0 °F 18.0 °F 23.0 °F 85% 29.16 in 1.2 mi West 9.2 mph - 0.00 in Snow Light Snow
5:52 PM 27.0 °F 18.0 °F 19.9 °F 75% 29.20 in 7.0 mi WNW 9.2 mph 18.4 mph 0.00 in   Overcast
6:52 PM 26.1 °F 17.6 °F 21.0 °F 81% 29.26 in 4.0 mi WNW 8.1 mph - 0.00 in Snow Light Snow
7:52 PM 26.1 °F 21.9 °F 19.0 °F 75% 29.28 in 10.0 mi Variable 3.5 mph - 0.00 in   Overcast
8:52 PM 26.1 °F 20.5 °F 19.0 °F 75% 29.30 in 10.0 mi WSW 4.6 mph - N/A   Overcast
9:52 PM 26.1 °F 13.1 °F 17.1 °F 69% 29.33 in 10.0 mi SW 17.3 mph 23.0 mph N/A   Overcast
10:52 PM 26.1 °F 13.1 °F 17.1 °F 69% 29.36 in 10.0 mi SW 17.3 mph 23.0 mph 0.00 in   Mostly Cloudy
11:52 PM 26.1 °F 16.8 °F 16.0 °F 66% 29.38 in 10.0 mi WSW 9.2 mph 17.3 mph N/A   Mostly Cloudy